Temperature
4 4 4 4 3 3 3 3 3 3 3 4 4 4 4 4 4 4 4 4 4 5 5 5 5 6 6 6 6 6 7 7 7 7 7 7 7 8 8 8 8 8 8
4 4 3 3 3 3 3 3 3 3 3 3 3 3 3 4 4 4 4 4 4 4 5 5 5 5 6 6 6 6 6 7 7 7 7 7 7 7 7 8 8 8 8
3 3 3 3 3 3 3 3 3 3 3 3 3 3 3 3 3 4 4 4 4 4 4 5 5 5 5 6 6 6 6 6 7 7 6 6 7 7 7 7 7 7 8
3 3 3 3 2 2 2 2 2 2 2 2 2 3 3 3 3 3 3 4 4 4 4 4 5 5 5 5 6 6 6 6 6 6 6 6 6 6 7 7 7 7 7
3 3 3 2 2 2 2 2 2 2 2 2 2 3 3 3 3 3 3 3 3 4 4 4 5 5 5 5 5 6 6 6 6 6 6 6 6 6 6 7 7 7 7
2 2 2 2 2 2 2 2 2 2 2 2 2 2 2 2 3 3 3 3 3 4 4 4 4 4 5 5 5 6 6 6 6 6 6 6 6 6 6 6 6 6 6
2 2 2 2 1 1 1 2 2 2 2 2 2 2 2 2 2 2 3 3 3 4 4 4 4 4 4 4 5 5 5 6 6 7 6 6 6 7 6 6 6 6 6
1 1 1 1 1 1 1 1 1 1 1 1 1 2 2 2 2 2 3 3 3 4 4 4 4 4 4 4 4 5 5 5 6 6 6 7 7 6 6 6 6 6 5
1 1 1 1 1 1 1 1 1 1 1 1 1 2 2 2 2 2 2 3 3 4 4 4 4 4 4 4 4 4 5 5 5 5 6 6 6 6 6 6 5 5 5
1 1 1 1 1 1 1 1 1 1 1 1 1 1 1 2 2 2 2 2 3 3 3 4 4 4 4 4 4 4 4 5 5 5 5 5 5 5 5 6 6 5 5
0 0 0 0 1 0 0 1 1 1 1 1 1 1 1 1 1 2 2 2 2 3 3 3 4 4 4 4 4 4 5 5 5 5 5 5 5 5 5 5 5 5 5
0 0 0 0 0 -0 0 0 0 0 0 1 1 1 1 1 1 1 2 2 2 2 3 3 3 3 4 4 4 4 4 4 4 4 4 4 4 4 4 5 5 4 4
-0 -0 -0 -0 -0 -0 -0 -0 -0 -0 -0 0 0 0 0 1 1 1 1 2 2 2 2 2 3 3 3 3 4 4 4 4 4 4 4 4 4 4 4 4 4 4 4
-1 -1 -1 -1 -1 -1 -1 -1 -1 -1 -1 -0 -0 -0 0 0 1 1 1 1 2 2 2 2 3 3 3 3 3 3 3 4 4 4 4 4 4 4 4 4 4 3 3
-1 -1 -1 -1 -1 -1 -1 -1 -1 -1 -1 -1 -1 -1 -1 -0 0 1 1 1 1 1 2 2 2 2 2 3 3 3 3 3 3 4 4 3 3 3 3 3 3 3 3
-2 -2 -2 -2 -2 -2 -2 -1 -1 -1 -1 -1 -1 -1 -0 -0 0 0 1 1 1 1 2 2 2 2 2 2 2 3 3 3 3 3 3 3 3 3 3 2 2 2 2
-2 -2 -2 -2 -2 -2 -2 -2 -2 -1 -1 -1 -1 -1 -1 -0 -0 0 1 1 1 1 2 2 2 2 2 2 2 2 2 3 3 3 3 3 3 2 2 2 2 2 2
-2 -2 -3 -3 -3 -2 -2 -2 -2 -2 -2 -2 -1 -1 -1 -1 -0 0 1 1 1 1 2 2 2 2 2 2 2 2 2 2 3 3 3 2 2 2 2 2 2 2 2
-3 -3 -3 -3 -3 -3 -2 -2 -2 -2 -3 -3 -2 -2 -1 -1 -0 0 0 1 1 1 1 2 2 2 2 2 2 2 2 2 2 2 2 2 2 2 2 2 2 1 1
-3 -3 -3 -3 -3 -3 -3 -3 -3 -3 -3 -3 -3 -2 -2 -1 -1 -0 0 0 1 1 1 1 1 2 2 2 2 2 2 2 2 2 2 2 2 2 2 2 1 1 1
-3 -3 -3 -3 -3 -3 -3 -3 -3 -3 -3 -3 -3 -2 -2 -1 -1 -0 -0 -0 0 1 1 1 1 1 2 2 2 2 2 2 2 2 2 2 2 2 1 1 1 1 0
-4 -4 -4 -4 -3 -3 -3 -3 -3 -3 -3 -3 -3 -2 -2 -1 -1 -1 -1 -0 -0 0 1 1 1 1 1 2 2 2 2 2 2 2 1 1 1 1 1 1 1 0 0
-4 -4 -4 -4 -3 -3 -3 -3 -3 -3 -3 -3 -2 -2 -2 -1 -1 -1 -1 -1 -0 0 0 1 1 1 1 1 1 2 2 2 2 2 2 1 1 1 1 1 1 0 0
-4 -4 -4 -4 -4 -3 -3 -3 -3 -3 -3 -3 -3 -2 -2 -2 -2 -1 -1 -1 -1 -0 0 0 0 1 1 1 1 1 1 1 1 1 2 2 1 1 1 1 0 0 -0
-5 -4 -4 -4 -4 -4 -4 -4 -3 -3 -3 -3 -3 -3 -2 -2 -2 -1 -1 -1 -1 -0 -0 0 0 0 1 1 1 1 1 1 1 1 1 1 1 1 1 1 0 -0 -1
-5 -5 -5 -4 -4 -4 -4 -4 -4 -3 -3 -3 -3 -3 -2 -2 -2 -1 -1 -1 -1 -1 -0 -0 0 0 0 0 0 1 1 1 1 1 1 1 1 1 1 0 0 -0 -1
Wind_Speed
7 7 8 8 8 8 8 10 10 10 9 9 9 9 10 11 11 11 12 12 13 12 11 11 11 10 8 8 7 7 7 6 7 5 4 4 6 7 8 9 11 11 12
8 8 8 8 8 8 9 10 9 9 9 9 9 9 10 11 11 12 13 13 13 13 12 12 12 10 10 9 8 9 8 7 7 8 5 5 6 7 7 7 7 8 9
8 8 8 8 8 9 9 9 9 9 8 8 9 10 11 11 11 12 13 13 13 13 13 13 12 12 11 10 10 9 7 7 7 8 7 5 4 5 6 5 6 5 7
8 8 8 9 9 9 9 8 8 8 8 8 9 10 10 10 10 10 12 12 12 12 12 12 12 13 12 11 10 10 9 8 8 8 7 6 5 5 6 6 5 4 4
8 9 9 9 9 8 8 8 7 7 8 7 8 9 8 8 8 8 9 11 11 12 12 11 11 12 14 12 11 10 10 9 8 8 8 6 6 7 7 5 5 4 3
8 9 9 8 8 8 8 8 7 7 6 6 7 7 7 7 10 12 10 8 9 11 11 10 10 11 12 13 14 15 14 12 11 9 8 10 9 7 6 7 6 5 3
8 9 9 8 8 8 8 8 7 6 6 7 6 7 6 7 11 11 12 8 8 9 10 9 9 9 10 8 9 10 11 14 14 11 11 11 10 9 9 8 8 6 4
8 8 8 8 8 8 7 8 7 6 6 6 6 6 5 7 11 12 11 7 7 8 9 10 9 9 9 8 7 7 7 7 9 9 9 9 8 9 10 9 8 4 4
8 9 9 9 9 8 8 8 6 6 6 6 6 6 6 8 11 11 10 5 6 7 8 8 9 9 10 10 8 7 7 5 5 8 8 8 9 10 10 8 7 6 4
8 9 9 8 8 8 8 7 6 6 6 6 6 6 6 6 9 9 8 4 5 5 5 6 9 10 11 10 9 9 9 8 7 6 6 6 7 8 10 9 9 8 5
8 8 9 8 8 8 7 6 6 6 5 5 6 5 5 6 6 7 8 4 4 4 4 5 6 9 10 10 9 8 11 10 8 7 6 5 5 5 5 4 5 6 6
8 8 9 8 8 8 7 6 5 5 5 5 5 5 4 4 5 6 8 7 6 4 4 4 4 7 8 8 7 10 12 10 7 7 6 5 6 5 5 5 6 5 5
8 9 8 9 8 7 7 6 6 5 4 5 4 5 5 3 3 6 6 6 7 4 3 4 4 6 6 6 9 11 10 8 8 8 7 6 5 6 6 6 8 9 10
8 8 8 8 8 7 6 5 5 5 4 4 5 5 4 4 3 2 2 2 3 2 1 1 3 4 4 6 8 8 6 7 8 8 7 6 6 6 7 7 7 7 7
8 8 7 7 7 6 6 6 6 5 6 5 4 4 4 5 5 7 5 3 2 2 2 1 2 4 4 5 5 5 6 6 7 7 8 8 7 7 6 6 6 5 5
8 7 6 6 6 5 6 7 8 8 10 10 8 7 6 6 7 7 7 6 5 3 1 1 2 4 5 6 6 5 5 6 7 7 8 8 8 8 7 6 6 7 7
7 7 6 6 6 5 5 6 7 8 9 9 8 8 8 7 6 6 6 5 4 2 0 2 2 3 4 5 6 6 5 6 7 8 8 8 8 8 8 8 7 8 7
7 8 7 6 5 5 5 5 5 6 7 6 6 7 8 7 6 6 5 3 2 3 1 2 2 3 4 5 6 7 6 6 6 7 8 8 8 8 8 8 8 8 8
7 6 6 5 5 5 5 5 5 5 5 5 5 5 7 7 7 6 5 1 1 1 1 2 2 4 4 5 6 6 7 6 7 7 8 8 8 8 8 8 8 10 9
6 9 8 6 5 5 5 5 5 4 5 5 5 5 5 4 3 4 4 2 1 1 1 2 2 3 4 6 6 6 7 6 7 7 7 7 7 7 9 9 9 8 7
6 7 9 7 5 5 5 5 4 4 4 4 4 5 6 3 3 3 2 2 1 1 1 1 2 3 4 5 6 7 7 6 6 6 7 7 7 8 7 8 8 8 8
5 5 5 5 5 4 5 4 4 4 4 5 4 4 6 3 2 2 2 2 2 2 1 2 2 2 3 4 6 7 7 7 6 6 7 7 8 8 8 8 8 8 9
5 5 6 5 4 6 6 4 4 4 4 4 4 3 3 2 2 2 2 2 2 2 2 2 2 1 2 3 4 6 7 7 6 7 8 8 8 8 8 9 10 10 9
5 5 6 6 5 4 4 4 4 4 4 4 3 3 2 2 2 2 2 2 2 2 2 2 2 2 3 3 4 5 6 7 7 7 10 10 9 8 8 9 9 10 10
6 5 5 5 5 4 4 4 4 3 3 3 3 2 2 1 1 2 2 2 2 2 2 2 2 2 4 5 6 7 9 10 10 9 9 9 10 9 10 10 9 10 10
6 5 5 5 4 4 4 4 3 3 3 3 2 2 1 1 1 1 2 2 2 2 2 2 3 3 5 6 8 11 12 12 12 12 10 9 10 9 10 9 11 10 11
Wind_Direction
286 284 284 284 284 281 278 273 271 269 263 260 257 255 253 247 236 231 232 226 226 225 224 223 223 219 215 205 201 208 209 205 227 239 238 196 194 186 177 177 174 178 185
290 289 286 284 284 283 281 277 272 269 263 259 257 257 256 253 239 231 232 229 225 224 223 222 222 219 215 207 203 208 210 206 210 217 222 200 195 185 175 175 173 176 179
292 290 288 285 284 281 282 280 274 272 268 264 261 258 257 252 246 234 231 230 226 223 221 221 219 213 217 212 205 207 207 206 201 206 213 203 197 182 173 170 168 168 169
295 290 287 285 284 284 286 281 274 272 269 267 265 262 257 254 253 243 231 227 226 226 223 220 217 215 215 212 209 206 202 197 194 198 197 195 194 182 172 173 175 169 164
295 292 288 287 286 286 290 289 282 277 276 273 272 266 257 252 252 246 232 227 223 226 224 219 220 219 218 217 211 201 195 195 192 191 194 194 193 184 187 180 176 155 147
298 295 295 296 293 291 293 295 284 276 277 279 273 267 259 258 261 257 253 232 227 227 223 220 220 217 218 225 220 211 203 199 196 194 201 196 199 193 182 172 165 164 187
302 302 299 297 296 292 292 293 282 277 277 276 274 271 266 264 263 262 264 252 236 228 220 219 222 219 216 207 209 208 209 207 203 200 197 202 197 190 179 178 176 177 184
304 306 305 304 301 297 295 290 279 278 275 274 275 275 271 271 272 267 267 259 246 229 224 217 213 211 209 198 196 201 204 206 195 193 196 198 194 184 182 178 167 140 108
306 306 307 305 305 302 300 295 286 280 277 273 272 273 270 268 274 273 271 257 248 237 226 216 209 206 202 196 192 194 193 190 170 169 172 171 169 172 165 152 154 155 153
305 305 305 305 305 303 302 299 290 281 281 280 275 270 273 270 271 277 280 259 252 240 223 213 211 207 199 193 192 188 185 182 167 156 150 148 157 158 165 175 172 168 154
307 309 311 310 307 304 301 296 289 291 286 285 287 288 285 278 276 279 287 273 255 240 231 222 210 202 199 199 199 191 183 173 163 157 152 150 151 156 163 157 160 169 162
313 309 309 310 309 306 302 304 301 302 296 289 295 302 301 290 282 280 291 288 288 262 247 235 211 197 197 193 186 174 166 162 158 152 152 157 157 157 152 132 113 99 97
315 314 310 309 310 310 311 311 310 304 299 297 295 295 298 295 281 291 300 308 304 294 265 238 210 193 189 180 169 165 164 163 160 158 162 165 156 152 139 120 103 94 80
318 317 314 314 315 318 318 312 308 306 301 296 296 295 298 302 300 301 316 323 331 331 316 221 187 177 165 157 158 158 163 164 161 159 155 150 143 141 138 135 129 120 100
317 317 318 319 318 322 322 315 307 300 293 290 290 290 290 295 296 303 302 302 302 286 288 257 179 166 158 155 153 152 153 152 150 149 149 148 146 142 137 135 133 124 120
317 317 318 318 318 319 321 322 319 310 314 308 299 296 297 292 303 311 313 313 315 296 287 187 185 171 164 161 155 151 152 154 153 151 151 151 151 148 141 134 133 131 130
315 314 314 313 312 314 315 315 319 327 327 319 313 311 306 306 316 318 317 320 326 329 155 177 173 162 159 159 158 155 154 152 150 152 149 149 146 145 145 144 139 131 130
315 312 310 306 306 306 307 307 308 313 321 328 329 323 323 327 324 322 322 343 5 8 94 148 157 152 152 151 149 146 144 145 146 147 145 146 147 148 147 145 144 140 138
316 314 310 308 307 306 306 306 307 309 311 314 323 332 333 335 338 339 335 2 18 13 62 104 127 136 137 138 140 141 143 143 143 143 145 146 149 148 145 144 143 141 137
318 314 315 313 312 313 312 309 309 310 312 311 313 316 324 331 341 343 348 359 35 45 76 97 108 127 133 137 139 139 135 133 138 142 144 146 148 147 145 144 145 145 142
316 317 318 317 317 314 312 310 308 308 308 308 305 306 312 315 314 322 338 356 24 44 71 94 111 125 133 137 138 136 135 137 140 143 144 146 145 141 140 140 140 138 135
316 317 318 315 314 313 312 310 308 306 305 304 307 316 322 329 338 355 360 4 16 35 64 91 97 110 135 142 144 143 142 143 147 146 142 140 138 137 137 137 137 138 137
314 315 315 313 311 310 311 311 310 309 307 308 312 319 329 344 353 358 359 9 25 45 56 79 99 100 116 122 137 146 149 152 153 148 141 139 139 140 141 141 141 142 144
314 313 312 312 311 309 309 311 311 310 310 311 313 318 331 345 359 359 6 22 31 47 58 75 99 115 122 120 122 126 131 136 138 142 141 141 141 142 140 140 141 143 143
314 312 310 309 309 308 309 312 313 313 313 313 316 326 344 3 13 13 26 38 41 54 54 66 93 105 121 126 127 127 130 130 133 132 133 137 137 138 138 138 139 140 141
316 312 310 311 310 310 311 312 313 313 311 311 317 327 342 4 17 34 48 54 55 57 55 68 87 102 112 120 124 128 131 131 132 133 130 133 135 136 136 136 138 140 139
Height
1405 1402 1399 1396 1393 1390 1386 1383 1381 1379 1378 1377 1376 1375 1375 1375 1377 1378 1379 1381 1383 1385 1388 1391 1394 1397 1399 1401 1404 1408 1410 1413 1413 1415 1419 1421 1423 1426 1429 1432 1435 1439 1442
1399 1396 1392 1389 1386 1383 1380 1377 1375 1373 1371 1370 1369 1368 1367 1367 1368 1369 1370 1372 1374 1376 1379 1383 1386 1389 1391 1394 1397 1400 1403 1406 1408 1409 1412 1415 1417 1420 1423 1427 1430 1433 1436
1393 1389 1386 1383 1380 1377 1373 1370 1368 1366 1364 1363 1362 1361 1360 1360 1360 1360 1362 1363 1365 1368 1371 1374 1378 1381 1383 1386 1390 1393 1396 1399 1402 1404 1405 1408 1411 1415 1418 1421 1425 1428 1431
1387 1383 1380 1376 1373 1370 1367 1364 1362 1360 1358 1356 1355 1354 1353 1353 1352 1352 1353 1355 1358 1361 1364 1367 1370 1373 1375 1379 1382 1385 1389 1392 1395 1398 1400 1402 1406 1409 1412 1415 1419 1422 1425
1381 1377 1374 1371 1367 1364 1361 1359 1357 1354 1353 1351 1348 1347 1347 1347 1346 1345 1346 1348 1351 1353 1356 1359 1362 1365 1368 1371 1375 1378 1382 1385 1388 1391 1393 1396 1399 1403 1406 1409 1413 1416 1419
1376 1372 1368 1365 1361 1358 1356 1353 1351 1349 1347 1345 1343 1342 1341 1341 1341 1341 1342 1343 1344 1346 1348 1351 1355 1358 1361 1365 1368 1372 1375 1378 1381 1384 1387 1389 1393 1397 1401 1404 1408 1411 1414
1371 1367 1363 1360 1357 1354 1351 1349 1347 1345 1343 1341 1339 1338 1336 1336 1336 1336 1337 1337 1339 1340 1342 1344 1347 1351 1354 1357 1361 1365 1369 1372 1376 1378 1380 1383 1387 1391 1395 1399 1403 1406 1409
1367 1363 1360 1356 1353 1349 1347 1345 1343 1341 1339 1337 1335 1334 1332 1332 1332 1332 1333 1333 1333 1334 1336 1338 1341 1344 1347 1351 1355 1358 1362 1365 1369 1373 1376 1379 1384 1388 1391 1395 1398 1402 1406
1363 1360 1356 1353 1349 1346 1343 1340 1338 1336 1334 1333 1331 1330 1329 1328 1327 1328 1329 1329 1329 1330 1331 1332 1335 1337 1341 1345 1348 1351 1355 1359 1364 1369 1373 1376 1380 1384 1387 1391 1395 1398 1400
1360 1357 1353 1350 1347 1343 1340 1337 1335 1333 1331 1329 1327 1326 1325 1323 1323 1324 1325 1325 1325 1325 1326 1327 1329 1331 1334 1338 1342 1345 1349 1353 1359 1364 1368 1372 1375 1379 1383 1387 1391 1394 1396
1357 1353 1350 1347 1343 1340 1337 1334 1332 1330 1328 1326 1324 1322 1321 1320 1320 1320 1321 1321 1321 1320 1320 1322 1324 1326 1329 1332 1336 1340 1344 1349 1354 1359 1363 1367 1371 1375 1380 1383 1387 1390 1393
1353 1349 1346 1343 1340 1337 1334 1331 1329 1327 1324 1323 1321 1319 1317 1317 1317 1316 1316 1317 1317 1316 1316 1317 1318 1321 1323 1327 1331 1335 1340 1345 1350 1354 1358 1362 1367 1371 1375 1379 1383 1387 1390
1350 1346 1343 1339 1337 1334 1331 1328 1326 1324 1322 1320 1318 1316 1314 1314 1314 1313 1313 1313 1313 1312 1312 1313 1314 1316 1319 1323 1327 1332 1337 1341 1345 1350 1354 1359 1364 1368 1372 1376 1380 1384 1387
1347 1343 1340 1336 1333 1331 1328 1326 1324 1321 1320 1318 1316 1314 1312 1311 1310 1310 1309 1309 1309 1308 1308 1309 1311 1313 1316 1319 1324 1329 1334 1338 1342 1346 1351 1356 1361 1365 1369 1373 1377 1380 1384
1344 1340 1337 1334 1331 1328 1326 1324 1322 1320 1319 1316 1314 1312 1310 1308 1307 1308 1307 1307 1306 1305 1306 1307 1308 1311 1314 1317 1321 1326 1331 1336 1340 1344 1349 1354 1358 1362 1366 1370 1374 1378 1382
1341 1338 1335 1332 1329 1326 1323 1321 1319 1318 1316 1314 1312 1311 1309 1308 1306 1305 1305 1304 1303 1303 1304 1304 1306 1309 1311 1315 1320 1324 1329 1334 1338 1342 1347 1351 1355 1360 1364 1368 1373 1376 1379
1339 1336 1333 1330 1327 1325 1322 1319 1316 1314 1313 1311 1310 1309 1307 1306 1305 1304 1303 1302 1302 1302 1302 1302 1304 1307 1310 1315 1319 1323 1327 1332 1336 1341 1345 1349 1354 1358 1362 1366 1370 1374 1377
1336 1333 1331 1328 1326 1323 1321 1318 1316 1313 1310 1308 1308 1307 1306 1304 1303 1302 1302 1302 1301 1301 1300 1301 1303 1306 1310 1313 1318 1322 1326 1331 1335 1339 1344 1348 1353 1357 1360 1365 1368 1372 1376
1333 1330 1328 1325 1323 1321 1319 1317 1314 1312 1310 1308 1306 1305 1304 1303 1302 1302 1302 1302 1301 1301 1301 1302 1304 1307 1310 1314 1318 1322 1326 1330 1334 1338 1343 1347 1351 1356 1359 1363 1367 1371 1375
1331 1328 1326 1323 1321 1319 1317 1315 1313 1311 1309 1307 1305 1304 1303 1302 1302 1302 1302 1302 1302 1302 1303 1304 1306 1308 1311 1314 1318 1321 1325 1329 1334 1338 1342 1346 1351 1355 1358 1362 1366 1370 1373
1328 1326 1323 1321 1319 1317 1315 1313 1311 1309 1308 1306 1305 1304 1304 1303 1302 1302 1302 1302 1303 1303 1304 1305 1307 1309 1312 1315 1318 1322 1325 1329 1333 1337 1342 1346 1350 1354 1358 1362 1366 1369 1372
1327 1324 1322 1319 1317 1315 1313 1311 1310 1308 1307 1305 1304 1304 1304 1303 1303 1302 1302 1303 1303 1304 1305 1306 1308 1310 1313 1316 1319 1322 1326 1329 1333 1337 1341 1345 1349 1353 1357 1361 1365 1368 1371
1325 1322 1320 1318 1316 1314 1312 1310 1309 1307 1306 1305 1304 1304 1303 1303 1303 1303 1303 1303 1304 1305 1306 1307 1309 1311 1314 1317 1320 1323 1326 1329 1333 1337 1340 1344 1349 1353 1357 1360 1364 1367 1370
1323 1320 1318 1316 1314 1313 1311 1309 1308 1306 1305 1304 1304 1303 1303 1303 1303 1303 1303 1304 1304 1305 1306 1308 1310 1312 1315 1317 1321 1324 1327 1331 1334 1337 1341 1345 1348 1352 1356 1359 1363 1367 1370
1321 1319 1316 1314 1313 1311 1309 1308 1306 1305 1304 1304 1303 1303 1303 1303 1303 1304 1304 1304 1305 1306 1307 1309 1311 1313 1316 1318 1321 1324 1328 1331 1335 1338 1342 1345 1348 1352 1355 1359 1362 1366 1369
1319 1317 1315 1313 1311 1310 1308 1306 1305 1304 1304 1303 1303 1303 1303 1303 1304 1304 1305 1305 1306 1307 1308 1310 1312 1314 1316 1319 1322 1325 1328 1332 1335 1339 1342 1345 1348 1351 1355 1358 1362 1366 1369